Погода в Красной Поляне

Россия / Липецкая область     52°06′41″N   38°39′57″E
темп.,
°C
ветер,
м/с
пор.,
м/с
влажн.,
%
обл.,
%
осадки,
мм/ч
давл.,
гПа
погр.,
м
17 мая, пн
пн1700:00+16всв359249 0.9 101179
03:00+15в478813 0.9 1011108
06:00+15в36875 0.0 1010110
09:00+22вюв513615 0.0 1010485
12:00+26вюв71247100 0.0 10091512
15:00+26вюв71349100 0.0 10081470
18:00+23вюв714582 0.0 1008574
21:00+19вюв514713 0.0 1008273
18 мая, вт
вт1800:00+17юв41072100 0.0 1008182
03:00+15вюв477150 0.0 1007121
06:00+14вюв387787 0.0 1007153
09:00+20юв612565 0.0 1007459
12:00+23юв5852100 0.0 1007943
15:00+24юв694993 0.0 10061487
18:00+21ю697198 0.1 1006511
21:00+16ююв5128798 0.8 1008708
19 мая, ср
ср1900:00+15юв369197 0.0 1007168
03:00+15ююв3793100 0.4 1008242
06:00+15юв2792100 0.1 1007277
09:00+18ююв357467 0.1 1007654
12:00+22ююв465818 0.0 10071615
15:00+23ююв575072 0.1 10062051
18:00+19ююз4675100 0.4 1006390
21:00+14ююз4108996 0.6 1007317
20 мая, чт
чт2000:00+12ююв5895100 0.1 1008290
03:00+12ю369624 1.1 1007276
06:00+12ююв369545 0.0 1007269
09:00+14ююв3489100 0.1 1007526
12:00+17ю457247 1.9 10071026
15:00+18ю777060 5.5 10071210
18:00+16ююз698264 1.6 1007928
21:00+12юз4109392 1.9 1009313
21 мая, пт
пт2100:00+11ююз389510 0.0 1010172
03:00+12ю61490100 0.0 1009491
06:00+13ююз81585100 0.0 1010810
09:00+14юз7118655 0.8 1011896
12:00+18юз8116897 1.0 10111534
15:00+18юз8116554 2.1 10121661
18:00+16з6107060 0.1 1014837
21:00+11сз51078100 0.1 1017346